Location: *
(42.5628°N, 2.3633°E)
Time: 01:38:20
(UTC+00:00)

YAOGAN 1 - Pass Details

Date: 30 March 2020
Orbit: 618 x 620 km, 97.9° (Epoch: 05 June)

Event Time Altitude Azimuth Distance (km) Brightness Sun altitude
Rises 18:51:50 0° 182° (S) 2,879 5.9 -7.6°
Reaches altitude 10° 18:54:05 10° 189° (S) 1,979 5.1 -8.0°
Maximum altitude 18:58:11 43° 261° (W) 877 3.9 -8.7°
Drops below altitude 10° 19:02:20 10° 334° (NNW) 1,995 5.8 -9.4°
Sets 19:04:37 0° 341° (NNW) 2,907 6.5 -9.9°
